Location: ????????
(48.4751°N, 37.6926°E)
Time: 21:10:27
(UTC+00:00)

Cosmos 2297 Rocket - Pass Details

Date: 20 January 2021
Orbit: 841 x 842 km, 71.0° (Epoch: 01 March)

Event Time Altitude Azimuth Distance (km) Brightness Sun altitude
Rises 15:01:09 0° 258° (WSW) 3,393 7.6 -8.6°
Reaches altitude 10° 15:04:18 10° 275° (W) 2,462 5.8 -9.1°
Maximum altitude 15:08:19 19° 321° (NW) 1,887 4.3 -9.7°
Drops below altitude 10° 15:12:19 10° 6° (N) 2,469 4.4 -10.4°
Enters shadow 15:15:21 - 23° (NNE) 3,354 4.9 -10.8°
